Location: Zagreb
(45.8000°N, 16.0000°E)
Time: 01:07:11
(UTC+02:00)

A-11 Canister half - All Passes

Search period start: 12 August 2020 00:00
Search period end: 22 August 2020 00:00
Orbit: 1513 x 1687 km, 47.2° (Epoch: 11 August)

Date Brightness Start Highest point End Pass type
(mag) Time Alt. Az. Time Alt. Az. Time Alt. Az.
12 Aug - 00:42:10 10° WNW 00:51:32 46° SW 01:01:01 10° SSE visible
12 Aug - 02:50:19 10° W 02:54:36 13° WSW 02:58:53 10° SSW visible
12 Aug - 16:03:40 10° S 16:10:21 22° SE 16:17:10 10° E daylight
12 Aug - 18:04:27 10° SW 18:13:45 61° SSE 18:23:26 10° ENE daylight
12 Aug - 20:08:52 10° W 20:18:38 85° N 20:28:46 10° E daylight
12 Aug - 22:14:05 10° WNW 22:24:02 88° SSW 22:34:15 10° ESE visible
13 Aug - 00:19:12 10° WNW 00:28:38 48° SW 00:38:12 10° SSE visible
13 Aug - 02:26:51 10° W 02:31:47 15° WSW 02:36:45 10° SSW visible
13 Aug - 15:41:13 10° S 15:47:33 20° SE 15:53:59 10° E daylight
13 Aug - 17:41:38 10° SW 17:50:52 59° SSE 18:00:28 10° ENE daylight
13 Aug - 19:45:57 10° W 19:55:40 86° N 20:05:47 10° E daylight
13 Aug - 21:51:10 10° WNW 22:01:04 90° S 22:11:16 10° ESE visible
13 Aug - 23:56:15 10° WNW 00:05:44 51° SW 00:15:23 10° SE visible
14 Aug - 02:03:29 10° W 02:08:58 16° SW 02:14:30 10° SSW visible
14 Aug - 15:18:49 10° SSE 15:24:44 19° SE 15:30:47 10° E daylight
14 Aug - 17:18:50 10° SW 17:27:59 56° SE 17:37:29 10° ENE daylight
14 Aug - 19:23:01 10° WSW 19:32:42 87° N 19:42:47 10° E daylight
14 Aug - 21:28:13 10° WNW 21:38:06 89° NNE 21:48:17 10° ESE visible
14 Aug - 23:33:18 10° WNW 23:42:50 53° SW 23:52:34 10° SE visible
15 Aug - 01:40:12 10° W 01:46:09 18° SW 01:52:09 10° SSW visible
15 Aug - 14:56:27 10° SSE 15:01:57 17° SE 15:07:32 10° E daylight
15 Aug - 16:56:03 10° SW 17:05:06 54° SE 17:14:30 10° ENE daylight
15 Aug - 19:00:06 10° WSW 19:09:45 88° NNW 19:19:48 10° ENE daylight
15 Aug - 21:05:17 10° W 21:15:08 88° NNE 21:25:19 10° ESE visible
15 Aug - 23:10:21 10° WNW 23:19:55 55° SW 23:29:42 10° SE visible
16 Aug - 01:16:58 10° W 01:23:20 19° SW 01:29:46 10° SSW visible
16 Aug - 14:34:11 10° SSE 14:39:09 16° SE 14:44:13 10° E daylight
16 Aug - 16:33:16 10° SW 16:42:13 51° SE 16:51:31 10° ENE daylight
16 Aug - 18:37:11 10° WSW 18:46:48 89° NNW 18:56:49 10° ENE daylight
16 Aug - 20:42:21 10° W 20:52:10 87° N 21:02:19 10° ESE visible
16 Aug - 22:47:24 10° WNW 22:57:01 58° SSW 23:06:51 10° SE visible
17 Aug - 00:53:47 10° W 01:00:30 21° SW 01:07:18 10° S visible
17 Aug - 14:11:59 10° SSE 14:16:22 14° ESE 14:20:49 10° E daylight
17 Aug - 16:10:30 10° SSW 16:19:21 49° SE 16:28:31 10° ENE daylight
17 Aug - 18:14:16 10° WSW 18:23:50 89° S 18:33:49 10° ENE daylight
17 Aug - 20:19:25 10° W 20:29:12 86° N 20:39:20 10° E visible
17 Aug - 22:24:28 10° WNW 22:34:06 60° SSW 22:43:58 10° SE visible
18 Aug - 00:30:38 10° W 00:37:40 22° SW 00:44:48 10° S visible
18 Aug - 13:49:57 10° SE 13:53:36 13° ESE 13:57:18 10° E daylight
18 Aug - 15:47:44 10° SSW 15:56:29 46° SE 16:05:33 10° ENE daylight
18 Aug - 17:51:21 10° WSW 18:00:54 88° SSE 18:10:51 10° ENE daylight
18 Aug - 19:56:29 10° W 20:06:15 85° N 20:16:20 10° E daylight
18 Aug - 22:01:31 10° WNW 22:11:11 62° SSW 22:21:06 10° SE visible
19 Aug - 00:07:31 10° W 00:14:50 24° SW 00:22:16 10° S visible
19 Aug - 13:28:09 10° SE 13:30:49 11° ESE 13:33:32 10° ESE daylight
19 Aug - 15:25:01 10° SSW 15:33:38 44° SE 15:42:33 10° ENE daylight
19 Aug - 17:28:27 10° WSW 17:37:58 86° SSE 17:47:52 10° ENE daylight
19 Aug - 19:33:34 10° W 19:43:16 84° N 19:53:21 10° E daylight
19 Aug - 21:38:36 10° WNW 21:48:15 65° SSW 21:58:13 10° SE visible
19 Aug - 23:44:25 10° W 23:51:59 25° SW 23:59:40 10° S visible
20 Aug - 13:07:15 10° SE 13:08:03 10° ESE 13:08:52 10° ESE daylight
20 Aug - 15:02:16 10° SSW 15:10:47 41° SE 15:19:33 10° ENE daylight
20 Aug - 17:05:34 10° WSW 17:15:01 84° SSE 17:24:53 10° ENE daylight
20 Aug - 19:10:38 10° W 19:20:18 83° N 19:30:21 10° E daylight
20 Aug - 21:15:40 10° WNW 21:25:20 67° SSW 21:35:18 10° SE visible
20 Aug - 23:21:21 10° W 23:29:09 27° SW 23:37:04 10° S visible
21 Aug - 14:39:34 10° SSW 14:47:56 39° SE 14:56:33 10° ENE daylight
21 Aug - 16:42:40 10° WSW 16:52:06 82° SSE 17:01:55 10° ENE daylight
21 Aug - 18:47:42 10° W 18:57:20 83° N 19:07:21 10° E daylight
21 Aug - 20:52:45 10° WNW 21:02:24 69° SSW 21:12:23 10° SE visible
21 Aug - 22:58:18 10° WNW 23:06:17 29° SW 23:14:25 10° S visible
